Location: Canazei
(46.4667°N, 11.7667°E)
Time: 18:03:10
(UTC+00:00)

OE (NEXTSAT) - Pass Details

Date: 21 April 2021
Orbit: 425 x 433 km, 46.0° (Epoch: 12 May)

Event Time Altitude Azimuth Distance (km) Brightness Sun altitude
Exits shadow 03:31:34 - 267° (W) 1,635 6.7 -7.8°
Reaches altitude 10° 03:31:49 10° 267° (W) 1,531 6.5 -7.7°
Maximum altitude 03:35:17 85° 180° (S) 437 4.3 -7.2°
Drops below altitude 10° 03:38:44 10° 91° (E) 1,526 8.3 -6.7°
Sets 03:40:51 0° 91° (E) 2,391 9.4 -6.3°
